CAPE
0 0 0 0 0 0 0 0 0 0 0 0 0 1 27 28 0 1 24 69 51 33 26 9 0 0 0 0 0 0 0 0 0 0 0 0 0 0 0 0 0 0 0
0 0 0 0 0 0 0 0 0 0 0 0 0 0 0 1 7 0 0 7 14 9 0 0 0 0 0 0 0 0 0 0 0 0 0 0 0 0 0 0 0 0 0
0 0 0 0 0 0 0 0 0 0 0 0 0 0 0 0 0 0 0 0 0 2 5 6 0 0 0 0 0 0 0 0 0 0 0 0 0 0 0 0 0 0 0
0 0 0 0 0 0 0 0 0 0 0 0 0 0 0 0 0 0 0 0 0 0 0 0 0 0 0 0 0 0 0 0 0 0 0 0 0 0 0 0 0 0 0
0 0 0 0 0 0 0 0 0 0 0 0 0 0 0 0 0 0 0 0 0 0 0 0 0 0 0 0 0 0 0 0 0 0 0 0 0 0 0 0 0 0 0
0 0 0 0 0 0 0 0 0 0 0 0 0 0 0 0 0 0 0 0 0 0 0 0 0 0 0 0 0 0 0 0 0 0 0 0 0 0 0 0 0 0 0
0 0 0 0 0 0 0 0 0 0 0 0 0 0 0 0 0 0 0 0 0 0 0 0 0 0 0 0 0 0 0 0 0 0 0 0 0 0 0 0 0 0 0
0 0 0 0 0 0 0 0 0 0 0 0 0 0 0 0 0 0 0 0 0 0 0 0 0 0 0 0 0 0 0 0 0 0 0 0 0 0 0 0 0 0 0
0 0 0 0 0 0 0 0 0 0 0 0 0 0 0 0 0 0 0 0 0 0 0 0 0 0 0 0 0 0 0 0 0 0 0 0 0 0 0 0 0 0 0
0 0 0 0 0 0 0 0 0 0 0 0 0 0 0 0 0 0 0 0 0 0 0 0 0 0 0 0 0 0 0 0 0 0 0 0 0 0 0 0 0 0 0
0 0 0 0 0 0 0 0 0 0 0 0 0 0 0 0 0 0 0 0 0 0 0 0 0 0 0 0 0 0 0 0 0 0 0 0 0 0 0 0 0 0 0
0 0 0 0 0 0 0 0 0 0 0 0 0 0 0 0 0 0 0 0 0 0 0 0 0 0 0 0 0 0 0 0 0 0 0 0 0 0 0 0 0 0 0
0 0 0 0 0 0 0 0 0 0 0 0 0 0 0 0 0 0 0 0 0 0 0 0 0 0 0 0 0 0 0 0 0 0 0 0 0 0 0 0 0 0 0
0 0 0 0 0 0 0 0 0 0 0 0 0 0 0 0 0 0 0 0 0 0 0 0 0 0 0 0 0 0 0 0 0 0 0 0 0 0 0 0 0 0 0
0 0 0 0 0 0 0 0 0 0 0 0 0 0 0 0 0 0 0 0 0 0 0 0 0 0 0 0 0 0 0 0 0 0 0 0 0 0 0 0 0 0 0
0 0 0 0 0 0 0 0 0 0 0 0 0 0 0 0 0 0 0 0 0 0 0 0 0 0 0 0 0 0 0 0 0 0 0 0 0 0 0 0 0 0 0
0 0 0 0 0 0 0 0 0 0 0 0 0 0 0 0 0 0 0 0 0 0 0 0 0 0 0 0 0 0 0 0 0 0 0 0 0 0 0 0 0 0 0
0 0 0 0 0 0 0 0 0 0 0 0 0 0 0 0 0 0 0 0 0 0 0 0 0 0 0 0 0 0 0 0 0 0 0 0 0 0 0 0 0 0 0
0 0 0 0 0 0 0 0 0 0 0 0 0 0 0 0 0 0 0 0 0 0 0 0 0 0 0 0 0 0 0 0 0 0 0 0 0 0 0 0 0 0 0
0 0 0 0 0 0 0 0 0 0 0 0 0 0 0 0 0 0 1 1 0 0 0 0 0 0 0 0 0 0 0 0 0 0 0 0 0 0 0 0 0 0 0
0 0 0 0 0 0 0 0 0 0 0 0 0 0 0 0 0 0 0 0 0 0 0 0 0 0 0 0 0 0 0 0 0 0 0 0 0 0 0 0 0 2 2
0 0 0 0 0 0 0 0 0 0 0 0 0 0 0 0 0 0 0 0 0 0 0 0 0 0 0 0 0 0 0 0 0 0 0 0 0 0 0 0 2 3 8
0 0 0 0 0 0 0 0 0 0 0 0 0 0 0 0 0 0 0 0 0 0 0 0 0 0 0 0 0 0 0 0 0 0 0 0 0 0 0 2 1 3 1
0 0 0 0 0 0 0 0 0 0 0 0 0 0 0 0 0 0 0 0 0 0 0 0 0 0 0 0 0 0 0 0 0 0 0 0 0 0 0 1 2 0 2
0 0 0 0 0 0 0 0 0 0 0 0 0 0 0 0 0 0 0 0 0 0 0 0 0 0 0 0 0 0 0 0 0 0 0 0 0 0 0 0 2 7 2
0 0 0 0 0 0 0 0 0 0 0 0 0 0 0 0 0 0 0 0 0 0 0 0 0 0 0 0 0 0 0 0 0 0 0 0 0 0 0 0 1 1 0
CIN
0 0 0 0 0 0 0 0 0 0 0 0 0 -89 -98 -55 0 -25 -50 -37 -55 -95 -39 -11 -13 0 0 0 0 0 0 0 0 0 0 0 0 0 0 0 0 0 0
0 0 0 0 0 0 0 0 0 0 0 0 0 0 -8 -124 -123 0 -17 -105 -77 -93 0 0 -42 -4 0 0 0 0 0 0 0 0 0 0 0 0 0 0 0 0 0
0 0 0 0 0 0 0 0 0 0 0 0 0 0 0 0 0 0 0 0 0 -92 -87 -94 0 0 0 0 0 0 0 0 0 0 0 0 0 0 0 0 0 0 0
0 0 0 0 0 0 0 0 0 0 0 0 0 0 0 0 0 0 0 0 0 0 0 0 0 0 0 0 0 0 0 0 0 0 0 0 0 0 0 0 0 0 0
0 0 0 0 0 0 0 0 0 0 0 0 0 0 0 0 0 0 0 0 0 0 0 0 0 0 0 0 0 0 0 0 0 0 0 0 0 0 0 0 0 0 0
0 0 0 0 0 0 0 0 0 0 0 0 0 0 0 0 0 0 0 0 0 0 0 0 0 0 0 0 0 0 0 0 0 0 0 0 0 0 0 0 0 0 0
0 0 0 0 0 0 0 0 0 0 0 0 0 0 0 0 0 0 0 0 0 0 0 0 0 0 0 0 0 0 0 0 0 0 0 0 0 0 0 0 0 0 0
0 0 0 0 0 0 0 0 0 0 0 0 0 0 0 0 0 0 0 0 0 0 0 0 0 0 0 0 0 0 0 0 0 0 0 0 0 0 0 0 0 0 0
0 0 0 0 0 0 0 0 0 0 0 0 0 0 0 0 0 0 0 0 0 0 0 0 0 0 0 0 0 0 0 0 0 0 0 0 0 0 0 0 0 0 0
0 0 0 0 0 0 0 0 0 0 0 0 0 0 0 0 0 0 0 0 0 0 0 0 0 0 0 0 0 0 0 0 0 0 0 0 0 0 0 0 0 0 0
0 0 0 0 0 0 0 0 0 0 0 0 0 0 0 0 0 0 0 0 0 0 0 0 0 0 0 0 0 0 0 0 0 0 0 0 0 0 0 0 0 0 0
0 0 0 0 0 0 0 0 0 0 0 0 0 0 0 0 0 0 0 0 0 0 0 0 0 0 0 0 0 0 0 0 0 0 0 0 0 0 0 0 0 0 0
0 0 0 0 0 0 0 0 0 0 0 0 0 0 0 0 0 0 0 0 0 0 0 0 0 0 0 0 0 0 0 0 0 0 0 0 0 0 0 0 0 0 0
0 0 0 0 0 0 0 0 0 0 0 0 0 0 0 0 0 0 0 0 0 0 0 0 0 0 0 0 0 0 0 0 0 0 0 0 0 0 0 0 0 0 0
0 0 0 0 0 0 0 0 0 0 0 0 0 0 0 0 0 0 0 0 0 0 0 0 0 0 0 0 0 0 0 0 0 0 0 0 0 0 0 0 0 0 0
0 0 0 0 0 0 0 0 0 0 0 0 0 0 0 0 0 0 0 0 0 0 0 0 0 0 0 0 0 0 0 0 0 0 0 0 0 0 0 0 0 0 0
0 0 0 0 0 0 0 0 0 0 0 0 0 0 0 0 0 0 0 0 0 0 0 0 0 0 0 0 0 0 0 0 0 0 0 0 0 0 0 0 0 0 0
0 0 0 0 0 0 0 0 0 0 0 0 0 0 0 0 0 0 0 0 0 0 0 0 0 0 0 0 0 0 0 0 0 0 0 0 0 0 0 0 0 0 0
0 0 0 0 0 0 0 0 0 0 0 0 0 0 0 0 0 0 0 0 0 0 0 0 0 0 0 0 0 0 0 0 0 0 0 0 0 0 0 0 0 0 0
0 0 0 0 0 0 0 0 0 0 0 0 0 0 0 0 0 0 0 0 0 0 0 0 0 0 0 0 0 0 0 0 0 0 0 0 0 0 0 0 0 0 0
0 0 0 0 0 0 0 0 0 0 0 0 0 0 0 0 0 0 0 0 0 0 0 0 0 0 0 0 0 0 0 0 0 0 0 0 0 0 0 0 0 -1 -1
0 0 0 0 0 0 0 0 0 0 0 0 0 0 0 0 0 0 0 0 0 0 0 0 0 0 0 0 0 0 0 0 0 0 0 0 0 0 0 -1 -1 -1 0
0 0 0 0 0 0 0 0 0 0 0 0 0 0 0 0 0 0 0 0 0 0 0 0 0 0 0 0 0 0 0 0 0 0 0 0 0 0 -1 -1 -1 0 0
0 0 0 0 0 0 0 0 0 0 0 0 0 0 0 0 0 0 0 0 0 0 0 0 0 0 0 0 0 0 0 0 0 0 0 0 0 0 0 -1 -1 -1 0
0 0 0 0 0 0 0 0 0 0 0 0 0 0 0 0 0 0 0 0 0 0 0 0 0 0 0 0 0 0 0 0 0 0 0 0 0 0 0 0 -1 0 -1
0 0 0 0 0 0 0 0 0 0 0 0 0 0 0 0 0 0 0 0 0 0 0 0 0 0 0 0 0 0 0 0 0 0 0 0 0 0 0 -1 -1 -1 0
Wind_Speed
16 15 14 12 12 14 12 14 17 19 17 25 26 26 24 29 24 22 23 24 21 17 21 24 15 10 11 21 26 20 16 16 5 13 8 10 9 8 6 8 9 10 9
19 15 13 12 13 10 7 10 14 10 16 23 24 28 21 21 23 20 16 17 17 18 19 13 15 19 13 19 19 18 19 18 5 7 7 3 5 6 8 9 8 9 8
21 19 17 14 15 14 10 14 18 15 15 15 18 24 29 30 29 20 14 15 18 24 24 22 17 24 22 19 20 20 21 12 19 19 12 4 9 6 7 8 9 9 8
22 21 19 20 19 20 19 16 19 19 18 15 16 20 22 25 25 25 27 25 23 23 22 22 23 27 27 26 21 23 10 19 17 16 11 9 8 7 6 6 7 7 8
22 22 22 22 23 23 24 20 17 20 20 19 10 9 12 16 18 18 17 17 14 13 13 12 12 12 15 17 18 26 15 20 13 12 10 8 6 6 4 6 7 8 8
22 22 22 23 25 25 25 24 23 24 23 22 21 21 19 17 16 14 15 14 12 10 10 10 10 10 9 7 5 11 11 13 11 10 7 6 5 5 7 8 8 9 12
23 22 22 23 25 27 27 26 26 26 26 26 25 24 21 19 17 13 11 14 14 14 14 16 17 11 6 7 7 8 8 8 8 7 6 6 8 5 6 8 8 11 14
23 23 23 24 25 27 28 28 27 27 26 26 25 24 23 23 24 19 13 13 14 16 16 12 9 8 8 8 10 10 10 10 11 10 9 11 11 13 8 13 13 15 18
24 25 25 25 26 26 27 28 28 27 27 26 25 25 25 25 26 26 13 9 8 10 9 8 10 11 12 12 12 11 11 11 13 14 14 15 15 13 12 13 16 17 21
27 26 26 24 25 26 25 26 26 25 24 22 20 21 22 22 22 21 12 4 6 6 8 9 9 9 9 9 11 11 10 11 13 15 17 18 17 16 13 14 18 20 22
26 23 24 26 26 26 24 23 22 22 20 21 21 19 20 21 18 20 16 5 8 5 7 8 8 7 7 7 10 12 12 14 15 17 18 19 19 19 18 17 19 21 23
17 17 19 22 24 23 22 22 23 22 23 22 21 20 20 20 19 17 17 13 9 10 10 10 10 5 5 7 11 15 15 15 15 16 19 21 22 22 21 20 20 21 22
12 10 11 12 13 16 17 15 14 14 15 15 16 16 15 9 10 15 12 11 10 11 15 14 14 13 14 16 13 16 16 17 18 20 23 23 23 24 26 28 26 25 27
13 11 8 8 8 8 9 7 7 8 9 9 10 11 8 5 2 3 3 5 6 11 17 19 21 22 22 25 24 22 21 21 22 25 28 31 33 35 33 29 30 30 32
14 13 12 10 9 8 7 7 7 6 6 5 5 4 1 1 2 5 6 10 13 13 14 18 20 21 22 23 24 25 25 25 27 28 32 36 34 32 31 31 33 35 36
14 13 13 12 12 10 9 9 9 9 8 9 7 5 7 10 14 15 16 17 16 16 20 23 23 22 25 27 28 28 29 29 30 30 31 33 35 35 35 35 36 36 38
17 14 12 13 12 12 11 10 10 11 10 11 9 9 11 18 18 18 19 20 19 18 22 24 26 27 27 27 27 30 31 31 30 30 33 33 33 35 36 37 37 38 40
20 18 15 14 13 13 12 11 11 10 11 12 19 14 16 14 16 18 17 19 22 21 21 23 24 25 26 27 29 31 30 29 29 31 32 34 35 36 38 39 40 40 40
20 19 19 16 15 14 13 12 11 10 11 12 14 15 15 14 14 13 13 16 19 21 22 22 23 23 23 25 25 27 27 28 29 32 33 35 36 38 39 39 39 39 41
21 21 20 19 18 17 15 13 12 11 10 11 13 13 11 14 14 15 16 16 17 18 18 18 20 20 20 22 25 26 27 29 30 33 35 36 36 36 38 39 39 41 41
23 21 20 20 20 17 17 17 16 15 14 12 13 12 9 11 12 13 14 15 14 16 15 16 17 18 22 25 25 24 29 31 31 33 33 34 35 35 36 37 38 39 40
18 15 17 19 20 20 18 18 18 15 13 12 11 7 6 7 8 8 10 11 13 15 16 16 18 21 22 22 22 25 27 29 30 31 32 33 33 35 36 37 38 38 39
18 18 12 14 16 16 15 14 14 13 11 8 5 4 5 5 6 7 9 13 14 14 14 16 17 18 20 21 23 24 26 27 28 30 31 33 34 35 36 37 38 39 38
19 16 13 12 12 11 11 10 10 8 7 6 4 2 3 5 6 6 8 11 12 12 13 14 16 20 21 22 23 24 25 27 29 30 31 32 34 36 36 37 36 36 35
10 11 10 9 9 8 7 7 6 6 5 4 2 0 1 4 7 9 7 9 10 11 14 15 18 20 22 23 24 26 27 29 30 30 32 34 35 36 36 35 33 31 32
8 7 7 9 7 6 7 8 9 9 5 5 5 4 3 5 5 8 10 11 10 12 15 17 20 21 22 24 25 26 27 29 31 33 33 34 36 37 35 33 32 32 32
Wind_Direction
209 201 192 195 193 157 175 168 151 143 152 131 135 135 159 148 167 177 184 181 187 194 191 188 199 198 205 204 203 221 235 239 260 242 250 252 268 297 358 39 59 77 65
151 220 227 208 189 200 232 191 173 182 159 143 143 132 148 155 158 167 182 193 191 192 195 206 202 202 216 213 218 225 226 227 252 94 84 338 337 16 54 60 29 25 48
132 171 192 202 188 188 197 176 162 165 161 163 159 145 132 131 139 161 173 176 180 175 179 189 201 191 200 209 208 212 210 235 116 119 103 10 306 5 25 19 30 30 32
140 140 179 179 172 169 168 176 168 164 165 164 162 153 150 146 151 154 152 160 165 168 173 177 178 173 179 186 203 196 240 119 108 106 88 82 69 31 49 39 18 17 12
136 147 157 171 163 159 156 173 180 172 168 170 192 189 179 168 169 172 175 179 185 188 192 198 203 208 206 208 211 181 104 123 100 95 83 76 71 48 66 23 5 359 358
134 131 126 134 154 162 166 167 171 166 169 169 169 168 173 177 180 185 185 190 196 202 206 212 215 218 235 262 314 72 90 108 109 103 84 74 51 25 7 357 354 348 339
144 135 128 131 138 158 168 171 168 166 165 164 164 165 174 183 193 208 218 211 210 210 211 207 207 245 304 353 355 2 360 51 40 58 44 30 9 12 0 344 333 329 327
146 145 141 139 137 149 160 164 167 170 168 164 161 165 168 177 177 202 226 226 225 220 223 246 268 289 303 3 31 30 21 10 3 12 9 358 351 347 340 333 326 324 326
151 150 151 147 146 142 146 157 168 164 164 159 160 156 159 166 154 153 232 253 259 253 269 35 44 51 55 56 50 39 18 5 354 349 344 339 339 338 334 332 325 321 320
162 155 152 144 146 147 143 143 147 148 143 131 126 130 130 127 128 119 83 321 285 295 45 46 48 23 49 29 8 18 17 4 352 344 338 335 333 331 324 317 322 317 317
157 149 148 154 152 150 139 136 132 130 126 131 130 125 128 134 116 125 113 319 291 7 24 46 23 62 55 37 5 353 351 345 341 335 331 330 328 327 324 317 314 313 312
149 143 144 147 149 145 139 139 143 140 142 142 141 140 141 143 143 136 140 133 313 313 321 336 343 34 26 354 337 332 333 334 333 330 327 325 324 323 322 318 312 308 306
169 161 151 146 144 143 142 137 133 132 131 133 136 138 136 122 128 153 146 147 150 315 307 319 329 334 329 326 327 330 329 327 326 324 324 324 325 323 321 317 315 310 308
198 208 197 186 172 163 156 156 149 145 142 137 136 138 127 112 85 333 328 322 317 311 309 313 314 315 316 316 322 325 324 323 323 323 322 323 324 321 320 319 317 316 312
198 208 215 218 209 218 199 195 191 192 178 172 163 154 141 160 306 312 317 315 314 317 321 318 318 320 322 323 324 324 325 324 321 322 321 320 323 325 325 324 320 319 314
193 205 214 221 230 233 235 246 244 255 213 200 271 271 297 300 303 306 308 310 313 315 312 311 315 319 319 320 319 322 324 325 325 325 326 324 324 326 326 326 323 321 319
193 199 208 211 222 225 237 241 247 255 247 266 229 243 280 294 298 303 306 309 311 315 312 314 315 317 319 320 321 321 322 325 327 327 328 326 328 329 329 328 327 325 323
200 200 211 211 215 219 227 236 251 255 261 265 285 273 280 280 291 298 303 309 311 315 314 315 317 317 320 320 322 323 325 327 331 331 331 330 331 330 330 329 329 328 328
218 216 215 224 224 219 226 229 236 249 260 268 285 291 297 301 305 307 308 312 313 316 319 318 320 323 326 325 328 328 328 332 334 333 333 333 331 332 332 333 333 333 332
230 219 220 228 234 231 234 234 235 243 251 264 279 286 288 300 304 310 316 320 323 328 326 328 334 328 333 336 336 330 326 337 336 334 333 334 336 337 336 337 337 336 335
248 244 230 236 240 233 239 242 252 263 271 278 285 292 288 296 306 315 321 328 337 345 346 350 350 344 340 340 333 334 335 335 340 337 342 344 344 343 343 342 340 340 340
251 241 218 224 243 246 249 255 257 260 267 278 291 299 307 313 324 338 345 345 347 351 346 348 343 347 349 348 346 346 343 346 349 353 353 353 352 349 348 347 346 345 344
248 251 228 223 245 248 248 248 252 256 260 264 269 287 312 329 340 348 350 345 344 345 353 1 356 1 7 2 357 358 358 0 3 2 359 356 355 354 353 351 349 347 346
245 249 246 240 238 241 242 243 244 234 226 229 238 258 313 349 357 2 26 20 358 358 4 11 8 8 7 10 11 12 13 10 6 5 5 2 359 358 356 355 354 351 349
241 240 234 232 232 232 220 221 214 205 202 189 180 151 8 11 25 25 9 44 27 26 30 20 19 23 25 27 25 21 17 16 14 12 9 6 4 3 2 1 358 356 353
244 225 236 237 222 201 193 174 167 146 154 207 155 119 92 358 32 55 52 58 48 32 35 36 36 36 33 28 27 24 21 19 17 14 14 12 9 6 6 3 1 359 355